,,,PA_Meas_PMT16A,,PR_Meas_QMR101_102,,RH_Meas_QMH101,,SR_Meas_QMS101,,TA_Meas_QMH101,,GenWind,,GenWind,
date,time,status,PA,status,PR,status,RH,status,SR,status,TA,status,DirAvg,status,SpdAvg,
2011-03-08, 00:00:04,VALID,1005.37,VALID,0,VALID,98.6948,VALID,0,VALID,25.2981,VALID,38,VALID,0,
2011-03-08, 00:01:04,VALID,1005.37,VALID,0,VALID,101.792,VALID,0,VALID,25.2806,VALID,38,VALID,0,
2011-03-08, 00:02:04,VALID,1005.39,VALID,0,VALID,104,VALID,0,VALID,25.2202,VALID,38,VALID,0,
2011-03-08, 00:03:04,VALID,1005.39,VALID,0,INVALID,115.989,VALID,0,VALID,25.2027,VALID,38,VALID,0.361719,
2011-03-08, 00:04:04,VALID,1005.38,VALID,0,INVALID,149.496,VALID,0,VALID,25.1248,VALID,38,VALID,0.178125,
2011-03-08, 00:05:04,VALID,1005.37,VALID,0,INVALID,163.578,VALID,0.100563,VALID,25.0839,VALID,38,VALID,0.202734,
2011-03-08, 00:06:04,VALID,1005.36,VALID,0,INVALID,163.601,VALID,0,VALID,25.0255,VALID,38,VALID,0.0640625,
2011-03-08, 00:07:04,VALID,1005.35,VALID,0,INVALID,163.655,VALID,0,VALID,25.0255,VALID,38,VALID,0.221094,
2011-03-08, 00:08:04,VALID,1005.33,VALID,0,INVALID,163.632,VALID,0,VALID,24.9866,VALID,343,VALID,0.339453,
2011-03-08, 00:09:04,VALID,1005.33,VALID,0,INVALID,163.639,VALID,0,VALID,25.0079,VALID,343,VALID,0.275781,
2011-03-08, 00:10:04,VALID,1005.29,VALID,0,INVALID,163.647,VALID,0,VALID,24.9282,VALID,343,VALID,0,
2011-03-08, 00:11:04,VALID,1005.28,VALID,0,INVALID,163.639,VALID,0,VALID,24.9282,VALID,343,VALID,0.194531,
2011-03-08, 00:12:04,VALID,1005.3,VALID,0,INVALID,163.647,VALID,0,VALID,24.9087,VALID,343,VALID,0.28125,
2011-03-08, 00:13:04,VALID,1005.3,VALID,0,INVALID,163.639,VALID,0,VALID,24.8697,VALID,343,VALID,0.192188,
2011-03-08, 00:14:04,VALID,1005.27,VALID,0,INVALID,163.639,VALID,0,VALID,24.8308,VALID,343,VALID,0.0820313,
2011-03-08, 00:15:04,VALID,1005.28,VALID,0,INVALID,163.647,VALID,0,VALID,24.7937,VALID,343,VALID,0,
2011-03-08, 00:16:04,VALID,1005.28,VALID,0,INVALID,163.639,VALID,0,VALID,24.7743,VALID,343,VALID,0.164453,
2011-03-08, 00:17:04,VALID,1005.27,VALID,0,INVALID,163.662,VALID,0,VALID,24.7335,VALID,343,VALID,0.175391,
2011-03-08, 00:18:04,VALID,1005.27,VALID,0,INVALID,163.655,VALID,0,VALID,24.6945,VALID,343,VALID,0.0511719,
2011-03-08, 00:19:04,VALID,1005.26,VALID,0,INVALID,163.639,VALID,0,VALID,24.675,VALID,343,VALID,0.3375,
2011-03-08, 00:20:04,VALID,1005.24,VALID,0,INVALID,163.678,VALID,0,VALID,24.6945,VALID,343,VALID,0,
2011-03-08, 00:21:04,VALID,1005.26,VALID,0,INVALID,163.609,VALID,0,VALID,24.7335,VALID,9,VALID,0.421094,
2011-03-08, 00:22:04,VALID,1005.25,VALID,0,INVALID,163.624,VALID,0,VALID,24.7919,VALID,338,VALID,0.691797,
2011-03-08, 00:23:04,VALID,1005.23,VALID,0,INVALID,163.647,VALID,0,VALID,24.8892,VALID,13,VALID,0.441016,
2011-03-08, 00:24:04,VALID,1005.26,VALID,0,INVALID,163.639,VALID,0,VALID,24.9282,VALID,2,VALID,0.362891,
2011-03-08, 00:25:04,VALID,1005.26,VALID,0,INVALID,163.632,VALID,0,VALID,24.9671,VALID,359,VALID,0.692969,
2011-03-08, 00:26:04,VALID,1005.24,VALID,0,INVALID,163.617,VALID,0,VALID,25.0469,VALID,28,VALID,0.871094,
2011-03-08, 00:27:04,VALID,1005.2,VALID,0,INVALID,163.624,VALID,0,VALID,25.1229,VALID,17,VALID,1.11758,
2011-03-08, 00:28:04,VALID,1005.18,VALID,0,INVALID,163.609,VALID,0,VALID,25.2806,VALID,2,VALID,0.321875,
2011-03-08, 00:29:04,VALID,1005.19,VALID,0,INVALID,163.601,VALID,0,VALID,25.337,VALID,8,VALID,0.798047,
2011-03-08, 00:30:04,VALID,1005.19,VALID,0,INVALID,163.609,VALID,0,VALID,25.376,VALID,18,VALID,0.533203,
2011-03-08, 00:31:04,VALID,1005.17,VALID,0,INVALID,163.617,VALID,0,VALID,25.4558,VALID,348,VALID,0.615234,
2011-03-08, 00:32:04,VALID,1005.14,VALID,0,INVALID,163.594,VALID,0,VALID,25.4948,VALID,21,VALID,0.353906,
2011-03-08, 00:33:04,VALID,1005.13,VALID,0,INVALID,163.586,VALID,0,VALID,25.5298,VALID,4,VALID,1.36523,
2011-03-08, 00:34:04,VALID,1005.14,VALID,0,INVALID,162.343,VALID,0,VALID,25.67,VALID,351,VALID,0.284375,
2011-03-08, 00:35:04,VALID,1005.12,VALID,0,INVALID,141.92,VALID,0,VALID,25.67,VALID,347,VALID,0.646094,
2011-03-08, 00:36:04,VALID,1005.1,VALID,0,INVALID,140.394,VALID,0,VALID,25.6681,VALID,9,VALID,1.13398,
2011-03-08, 00:37:04,VALID,1005.09,VALID,0,INVALID,133.811,VALID,0,VALID,25.7265,VALID,2,VALID,1.09805,
2011-03-08, 00:38:04,VALID,1005.08,VALID,0,INVALID,121.94,VALID,0,VALID,25.785,VALID,3,VALID,0.86875,
2011-03-08, 00:39:04,VALID,1005.05,VALID,0,INVALID,115.768,VALID,0,VALID,25.8064,VALID,358,VALID,1.7168,
2011-03-08, 00:40:04,VALID,1005.02,VALID,0,INVALID,109.757,VALID,0,VALID,25.8629,VALID,349,VALID,0.817578,
2011-03-08, 00:41:04,VALID,1005.03,VALID,0,VALID,104,VALID,0,VALID,25.9232,VALID,5,VALID,0.667188,
2011-03-08, 00:42:04,VALID,1005.01,VALID,0,VALID,104,VALID,0,VALID,25.9232,VALID,354,VALID,0.744141,
2011-03-08, 00:43:04,VALID,1005,VALID,0,VALID,104,VALID,0,VALID,25.9018,VALID,358,VALID,0.571875,
2011-03-08, 00:44:04,VALID,1004.97,VALID,0,VALID,104,VALID,0,VALID,25.9018,VALID,349,VALID,0.45,
2011-03-08, 00:45:04,VALID,1004.94,VALID,0,VALID,104,VALID,0,VALID,25.8843,VALID,352,VALID,0.390625,
2011-03-08, 00:46:04,VALID,1004.96,VALID,0,VALID,104,VALID,0,VALID,25.8453,VALID,359,VALID,0.544141,
2011-03-08, 00:47:04,VALID,1004.88,VALID,0,VALID,104,VALID,0,VALID,25.785,VALID,9,VALID,0.725391,
2011-03-08, 00:48:04,VALID,1004.87,VALID,0,VALID,104,VALID,0,VALID,25.7655,VALID,3,VALID,0.690625,
2011-03-08, 00:49:04,VALID,1004.84,VALID,0,VALID,104,VALID,0,VALID,25.8064,VALID,21,VALID,0.725,
2011-03-08, 00:50:04,VALID,1004.8,VALID,0,VALID,104,VALID,0,VALID,25.8044,VALID,15,VALID,0.811328,
2011-03-08, 00:51:04,VALID,1004.77,VALID,0,VALID,104,VALID,0,VALID,25.8259,VALID,360,VALID,0.553516,
2011-03-08, 00:52:04,VALID,1004.77,VALID,0,VALID,104,VALID,0,VALID,25.8239,VALID,30,VALID,0.684766,
2011-03-08, 00:53:04,VALID,1004.77,VALID,0,VALID,104,VALID,0,VALID,25.8239,VALID,45,VALID,0.898438,
2011-03-08, 00:54:04,VALID,1004.75,VALID,0,VALID,104,VALID,0,VALID,25.8239,VALID,24,VALID,0.574609,
2011-03-08, 00:55:04,VALID,1004.72,VALID,0,VALID,104,VALID,0,VALID,25.8064,VALID,11,VALID,0.339453,
2011-03-08, 00:56:04,VALID,1004.74,VALID,0,VALID,104,VALID,0,VALID,25.6876,VALID,15,VALID,0.649219,
2011-03-08, 00:57:04,VALID,1004.73,VALID,0,INVALID,109.619,VALID,0,VALID,25.6311,VALID,23,VALID,0.764453,
2011-03-08, 00:58:04,VALID,1004.73,VALID,0,INVALID,114.487,VALID,0,VALID,25.5513,VALID,22,VALID,0.244531,
2011-03-08, 00:59:04,VALID,1004.74,VALID,0,INVALID,121.719,VALID,0,VALID,25.5142,VALID,22,VALID,0.46875,
2011-03-08, 01:00:04,VALID,1004.66,VALID,0,INVALID,134.596,VALID,0,VALID,25.4149,VALID,1,VALID,0.853516,
2011-03-08, 01:01:04,VALID,1004.69,VALID,0,INVALID,149.297,VALID,0,VALID,25.4344,VALID,24,VALID,0.832812,
2011-03-08, 01:02:04,VALID,1004.67,VALID,0,INVALID,147.939,VALID,0,VALID,25.4753,VALID,20,VALID,1.07891,
2011-03-08, 01:03:04,VALID,1004.64,VALID,0,INVALID,138.067,VALID,0,VALID,25.5337,VALID,22,VALID,0.567187,
2011-03-08, 01:04:04,VALID,1004.66,VALID,0,INVALID,129.821,VALID,0,VALID,25.5513,VALID,7,VALID,0.453516,
2011-03-08, 01:05:04,VALID,1004.64,VALID,0,INVALID,127.25,VALID,0,VALID,25.5921,VALID,1,VALID,0.930859,
2011-03-08, 01:06:04,VALID,1004.65,VALID,0,INVALID,121.108,VALID,0,VALID,25.6311,VALID,359,VALID,1.26953,
2011-03-08, 01:07:04,VALID,1004.63,VALID,0,INVALID,116.585,VALID,0,VALID,25.6681,VALID,12,VALID,0.576563,
2011-03-08, 01:08:04,VALID,1004.64,VALID,0,INVALID,112.938,VALID,0,VALID,25.6876,VALID,24,VALID,0.697266,
2011-03-08, 01:09:04,VALID,1004.59,VALID,0,VALID,104,VALID,0,VALID,25.7869,VALID,4,VALID,1.46016,
2011-03-08, 01:10:04,VALID,1004.59,VALID,0,VALID,104,VALID,0,VALID,25.8239,VALID,1,VALID,1.3,
2011-03-08, 01:11:04,VALID,1004.58,VALID,0,VALID,102.7,VALID,0,VALID,25.9038,VALID,10,VALID,0.764844,
2011-03-08, 01:12:04,VALID,1004.56,VALID,0,VALID,101.617,VALID,0,VALID,25.9213,VALID,12,VALID,0.911328,
2011-03-08, 01:13:04,VALID,1004.55,VALID,0,VALID,100.938,VALID,0,VALID,25.9232,VALID,359,VALID,1.11328,
2011-03-08, 01:14:04,VALID,1004.52,VALID,0,VALID,100.625,VALID,0.100563,VALID,25.9408,VALID,20,VALID,1.14063,
2011-03-08, 01:15:04,VALID,1004.54,VALID,0,VALID,99.8926,VALID,0,VALID,25.9622,VALID,28,VALID,1.3457,
2011-03-08, 01:16:04,VALID,1004.53,VALID,0,VALID,99.7018,VALID,0,VALID,25.9817,VALID,30,VALID,0.653125,
2011-03-08, 01:17:04,VALID,1004.51,VALID,0,VALID,99.3891,VALID,0,VALID,25.9408,VALID,21,VALID,0.917188,
2011-03-08, 01:18:04,VALID,1004.5,VALID,0,VALID,99.3204,VALID,0,VALID,25.9427,VALID,21,VALID,0.524219,
2011-03-08, 01:19:04,VALID,1004.48,VALID,0,VALID,99.3814,VALID,0,VALID,25.9427,VALID,26,VALID,1.61172,
2011-03-08, 01:20:04,VALID,1004.48,VALID,0,VALID,99.4425,VALID,0,VALID,25.9622,VALID,22,VALID,0.596094,
2011-03-08, 01:21:04,VALID,1004.47,VALID,0,VALID,99.2288,VALID,0,VALID,25.9213,VALID,46,VALID,0.537891,
2011-03-08, 01:22:04,VALID,1004.45,VALID,0,VALID,99.6637,VALID,0,VALID,25.8823,VALID,37,VALID,0.424609,
2011-03-08, 01:23:04,VALID,1004.43,VALID,0,VALID,100.16,VALID,0,VALID,25.8453,VALID,33,VALID,0.871094,
2011-03-08, 01:24:04,VALID,1004.43,VALID,0,VALID,100.732,VALID,0,VALID,25.7674,VALID,42,VALID,0.723047,
2011-03-08, 01:25:04,VALID,1004.4,VALID,0,VALID,101.266,VALID,0,VALID,25.748,VALID,24,VALID,0.433594,
2011-03-08, 01:26:04,VALID,1004.4,VALID,0,VALID,101.052,VALID,0,VALID,25.6876,VALID,24,VALID,1.6293,
2011-03-08, 01:27:04,VALID,1004.37,VALID,0,VALID,100.594,VALID,0,VALID,25.748,VALID,38,VALID,0.685547,
2011-03-08, 01:28:04,VALID,1004.38,VALID,0,VALID,100.579,VALID,0,VALID,25.7265,VALID,31,VALID,0.796094,
2011-03-08, 01:29:04,VALID,1004.32,VALID,0,VALID,101.022,VALID,0,VALID,25.6876,VALID,37,VALID,0.419922,
2011-03-08, 01:30:04,VALID,1004.32,VALID,0,VALID,101.319,VALID,0,VALID,25.6681,VALID,31,VALID,0.4625,
2011-03-08, 01:31:04,VALID,1004.29,VALID,0,VALID,102.28,VALID,0,VALID,25.6292,VALID,31,VALID,0.459766,
2011-03-08, 01:32:04,VALID,1004.28,VALID,0,VALID,103.684,VALID,0,VALID,25.5902,VALID,38,VALID,0.35625,
2011-03-08, 01:33:04,VALID,1004.24,VALID,0,VALID,104,VALID,0,VALID,25.5513,VALID,46,VALID,0.439063,
2011-03-08, 01:34:04,VALID,1004.22,VALID,0,VALID,104,VALID,0,VALID,25.5337,VALID,57,VALID,0.747656,
2011-03-08, 01:35:04,VALID,1004.23,VALID,0,VALID,104,VALID,0,VALID,25.4928,VALID,50,VALID,0.362891,
2011-03-08, 01:36:04,VALID,1004.19,VALID,0,INVALID,109.864,VALID,0,VALID,25.4753,VALID,39,VALID,0.495313,
2011-03-08, 01:37:04,VALID,1004.18,VALID,0,INVALID,110.512,VALID,0,VALID,25.4539,VALID,28,VALID,0.882422,
2011-03-08, 01:38:04,VALID,1004.19,VALID,0,INVALID,110.954,VALID,0,VALID,25.4753,VALID,28,VALID,0.936719,
2011-03-08, 01:39:04,VALID,1004.16,VALID,0,INVALID,110.756,VALID,0,VALID,25.4363,VALID,34,VALID,1.31719,
2011-03-08, 01:40:04,VALID,1004.19,VALID,0,INVALID,110.23,VALID,0,VALID,25.4558,VALID,26,VALID,0.563672,
2011-03-08, 01:41:04,VALID,1004.15,VALID,0,INVALID,110.108,VALID,0,VALID,25.4753,VALID,37,VALID,0.6625,
2011-03-08, 01:42:04,VALID,1004.13,VALID,0,INVALID,110.947,VALID,0,VALID,25.4558,VALID,13,VALID,0.914063,
2011-03-08, 01:43:04,VALID,1004.13,VALID,0,INVALID,112.251,VALID,0.100563,VALID,25.4344,VALID,23,VALID,0.520703,
2011-03-08, 01:44:04,VALID,1004.1,VALID,0,INVALID,112.877,VALID,0.100563,VALID,25.4539,VALID,45,VALID,0.648828,
2011-03-08, 01:45:04,VALID,1004.08,VALID,0,INVALID,111.748,VALID,0.100563,VALID,25.4928,VALID,17,VALID,0.622656,
2011-03-08, 01:46:04,VALID,1004.05,VALID,0,INVALID,110.817,VALID,0.100563,VALID,25.5123,VALID,24,VALID,0.946484,
2011-03-08, 01:47:04,VALID,1004.04,VALID,0,VALID,104,VALID,0.100563,VALID,25.5707,VALID,36,VALID,1.36328,
2011-03-08, 01:48:04,VALID,1004.04,VALID,0,VALID,102.502,VALID,0.100563,VALID,25.6876,VALID,10,VALID,1.08242,
2011-03-08, 01:49:04,VALID,1004.03,VALID,0,VALID,100.694,VALID,0.100563,VALID,25.7265,VALID,20,VALID,1.02305,
2011-03-08, 01:50:04,VALID,1003.99,VALID,0,VALID,99.8926,VALID,0.100563,VALID,25.7635,VALID,26,VALID,0.959766,
2011-03-08, 01:51:04,VALID,1004,VALID,0,VALID,99.0839,VALID,0.100563,VALID,25.8025,VALID,43,VALID,0.777734,
2011-03-08, 01:52:04,VALID,1003.97,VALID,0,VALID,98.7406,VALID,0.100563,VALID,25.8239,VALID,42,VALID,0.64375,
2011-03-08, 01:53:04,VALID,1003.94,VALID,0,VALID,99.2212,VALID,0.100563,VALID,25.8044,VALID,23,VALID,0.89375,
2011-03-08, 01:54:04,VALID,1003.89,VALID,0,VALID,99.3662,VALID,0.100563,VALID,25.744,VALID,27,VALID,0.822656,
2011-03-08, 01:55:04,VALID,1003.93,VALID,0,VALID,99.5569,VALID,0.100563,VALID,25.7032,VALID,35,VALID,0.876172,
2011-03-08, 01:56:04,VALID,1003.91,VALID,0,VALID,99.7705,VALID,0,VALID,25.6662,VALID,34,VALID,0.710156,
2011-03-08, 01:57:04,VALID,1003.9,VALID,0,VALID,100.434,VALID,0.100563,VALID,25.6292,VALID,34,VALID,0.795703,
2011-03-08, 01:58:04,VALID,1003.87,VALID,0,VALID,100.93,VALID,0,VALID,25.6116,VALID,12,VALID,0.997656,
2011-03-08, 01:59:04,VALID,1003.86,VALID,0,VALID,100.724,VALID,0,VALID,25.5902,VALID,11,VALID,0.815625,
2011-03-08, 02:00:04,VALID,1003.86,VALID,0,VALID,100.068,VALID,0,VALID,25.5902,VALID,28,VALID,1.97187,
2011-03-08, 02:01:04,VALID,1003.82,VALID,0,VALID,98.733,VALID,0,VALID,25.7285,VALID,15,VALID,0.965234,
2011-03-08, 02:02:04,VALID,1003.8,VALID,0,VALID,97.8022,VALID,0,VALID,25.7674,VALID,11,VALID,1.82344,
2011-03-08, 02:03:04,VALID,1003.8,VALID,0,VALID,96.986,VALID,0,VALID,25.8064,VALID,31,VALID,1.37383,
2011-03-08, 02:04:04,VALID,1003.75,VALID,0,VALID,96.1544,VALID,0,VALID,25.8648,VALID,15,VALID,2.12891,
2011-03-08, 02:05:04,VALID,1003.75,VALID,0,VALID,95.6662,VALID,0,VALID,25.9427,VALID,29,VALID,1.4293,
2011-03-08, 02:06:04,VALID,1003.74,VALID,0,VALID,94.7888,VALID,0,VALID,26.0012,VALID,36,VALID,1.32617,
2011-03-08, 02:07:04,VALID,1003.72,VALID,0,VALID,94.3235,VALID,0,VALID,26.0596,VALID,11,VALID,1.19961,
2011-03-08, 02:08:04,VALID,1003.73,VALID,0,VALID,93.8276,VALID,0,VALID,26.0985,VALID,16,VALID,1.40625,
2011-03-08, 02:09:04,VALID,1003.74,VALID,0,VALID,93.4462,VALID,0,VALID,26.118,VALID,1,VALID,1.55273,
2011-03-08, 02:10:04,VALID,1003.75,VALID,0,VALID,93.6445,VALID,0,VALID,26.157,VALID,23,VALID,0.930078,
2011-03-08, 02:11:04,VALID,1003.78,VALID,0,VALID,93.7208,VALID,0,VALID,26.157,VALID,12,VALID,0.698828,
2011-03-08, 02:12:04,VALID,1003.79,VALID,0,VALID,93.4614,VALID,0,VALID,26.157,VALID,34,VALID,1.98164,
2011-03-08, 02:13:04,VALID,1003.78,VALID,0,VALID,93.347,VALID,0,VALID,26.1765,VALID,21,VALID,1.4832,
2011-03-08, 02:14:05,VALID,1003.78,VALID,0,VALID,92.8435,VALID,0.100563,VALID,26.1745,VALID,355,VALID,1.68672,
2011-03-08, 02:15:05,VALID,1003.77,VALID,0,VALID,93.1791,VALID,0,VALID,26.194,VALID,17,VALID,1.4625,
2011-03-08, 02:16:05,VALID,1003.74,VALID,0,VALID,93.0952,VALID,0.100563,VALID,26.194,VALID,22,VALID,1.51758,
2011-03-08, 02:17:05,VALID,1003.77,VALID,0,VALID,92.6375,VALID,0.100563,VALID,26.2134,VALID,31,VALID,1.32109,
2011-03-08, 02:18:05,VALID,1003.74,VALID,0,VALID,93.0037,VALID,0.100563,VALID,26.2329,VALID,13,VALID,1.04492,
2011-03-08, 02:19:05,VALID,1003.76,VALID,0,VALID,92.4697,VALID,0,VALID,26.194,VALID,25,VALID,1.85,
2011-03-08, 02:20:05,VALID,1003.74,VALID,0,VALID,92.2027,VALID,0.100563,VALID,26.2114,VALID,25,VALID,0.936328,
2011-03-08, 02:21:05,VALID,1003.73,VALID,0,VALID,92.462,VALID,0.100563,VALID,26.1725,VALID,19,VALID,1.02578,
2011-03-08, 02:22:05,VALID,1003.76,VALID,0,VALID,92.668,VALID,0,VALID,26.1745,VALID,2,VALID,0.561719,
2011-03-08, 02:23:05,VALID,1003.75,VALID,0,VALID,92.8892,VALID,0.100563,VALID,26.0946,VALID,26,VALID,0.860156,
2011-03-08, 02:24:05,VALID,1003.75,VALID,0,VALID,92.2103,VALID,0,VALID,26.1355,VALID,15,VALID,1.47344,
2011-03-08, 02:25:05,VALID,1003.74,VALID,0,VALID,92.4086,VALID,0.100563,VALID,26.155,VALID,30,VALID,1.3793,
2011-03-08, 02:26:05,VALID,1003.75,VALID,0,VALID,92.7367,VALID,0.100563,VALID,26.0946,VALID,21,VALID,0.626562,
2011-03-08, 02:27:05,VALID,1003.75,VALID,0,VALID,92.9579,VALID,0.100563,VALID,26.0576,VALID,8,VALID,0.651563,
2011-03-08, 02:28:05,VALID,1003.72,VALID,0,VALID,93.1563,VALID,0.100563,VALID,26.0381,VALID,18,VALID,0.719922,
2011-03-08, 02:29:05,VALID,1003.73,VALID,0,VALID,92.4697,VALID,0,VALID,26.0187,VALID,9,VALID,1.05273,
2011-03-08, 02:30:05,VALID,1003.71,VALID,0,VALID,92.34,VALID,0.100563,VALID,26.0167,VALID,31,VALID,1.70781,
2011-03-08, 02:31:05,VALID,1003.68,VALID,0,VALID,91.9356,VALID,0.100563,VALID,26.0966,VALID,50,VALID,0.497266,
2011-03-08, 02:32:05,VALID,1003.69,VALID,0,VALID,92.1798,VALID,0,VALID,26.0576,VALID,48,VALID,0.610937,
2011-03-08, 02:33:05,VALID,1003.65,VALID,0,VALID,92.6985,VALID,0,VALID,26.0187,VALID,45,VALID,0.367188,
2011-03-08, 02:34:05,VALID,1003.65,VALID,0,VALID,92.3705,VALID,0.100563,VALID,25.9388,VALID,31,VALID,0.880469,
2011-03-08, 02:35:05,VALID,1003.63,VALID,0,VALID,92.7672,VALID,0.100563,VALID,25.8998,VALID,58,VALID,0.384375,
2011-03-08, 02:36:05,VALID,1003.61,VALID,0,VALID,92.3629,VALID,0.100563,VALID,25.8629,VALID,42,VALID,0.622656,
2011-03-08, 02:37:05,VALID,1003.63,VALID,0,VALID,92.7672,VALID,0.100563,VALID,25.8414,VALID,15,VALID,0.750391,
2011-03-08, 02:38:05,VALID,1003.59,VALID,0,VALID,92.9579,VALID,0,VALID,25.8239,VALID,13,VALID,0.604688,
2011-03-08, 02:39:05,VALID,1003.62,VALID,0,VALID,92.2789,VALID,0,VALID,25.8044,VALID,359,VALID,0.688672,
2011-03-08, 02:40:05,VALID,1003.64,VALID,0,VALID,92.6909,VALID,0.100563,VALID,25.8044,VALID,359,VALID,0.508984,
2011-03-08, 02:41:05,VALID,1003.63,VALID,0,VALID,92.7596,VALID,0,VALID,25.785,VALID,4,VALID,1.01016,
2011-03-08, 02:42:05,VALID,1003.61,VALID,0,VALID,93.7971,VALID,0.100563,VALID,25.8044,VALID,14,VALID,0.820703,
2011-03-08, 02:43:05,VALID,1003.59,VALID,0,VALID,92.4925,VALID,0.100563,VALID,25.8629,VALID,12,VALID,0.900781,
2011-03-08, 02:44:05,VALID,1003.58,VALID,0,VALID,92.0501,VALID,0.100563,VALID,25.8609,VALID,18,VALID,1.43789,
2011-03-08, 02:45:05,VALID,1003.54,VALID,0,VALID,91.2643,VALID,0,VALID,25.8823,VALID,25,VALID,1.35,
2011-03-08, 02:46:05,VALID,1003.55,VALID,0,VALID,90.715,VALID,0.100563,VALID,25.9797,VALID,11,VALID,1.61992,
2011-03-08, 02:47:05,VALID,1003.52,VALID,0,VALID,90.6311,VALID,0.100563,VALID,25.9992,VALID,53,VALID,0.9375,
2011-03-08, 02:48:05,VALID,1003.49,VALID,0,VALID,90.5319,VALID,0,VALID,26.0187,VALID,26,VALID,1.0543,
2011-03-08, 02:49:05,VALID,1003.47,VALID,0,VALID,89.9979,VALID,0,VALID,25.9992,VALID,356,VALID,1.91289,
2011-03-08, 02:50:05,VALID,1003.47,VALID,0,VALID,89.5325,VALID,0.100563,VALID,26.0167,VALID,30,VALID,1.20273,
2011-03-08, 02:51:05,VALID,1003.46,VALID,0,VALID,90.0132,VALID,0.100563,VALID,26.0576,VALID,31,VALID,1.29336,
2011-03-08, 02:52:05,VALID,1003.47,VALID,0,VALID,90.0971,VALID,0.100563,VALID,26.0187,VALID,15,VALID,1.38945,
2011-03-08, 02:53:05,VALID,1003.45,VALID,0,VALID,90.2802,VALID,0.100563,VALID,26.0381,VALID,23,VALID,1.22969,
2011-03-08, 02:54:05,VALID,1003.45,VALID,0,VALID,89.296,VALID,0,VALID,26.0576,VALID,22,VALID,1.50117,
2011-03-08, 02:55:05,VALID,1003.41,VALID,0,VALID,88.7544,VALID,0,VALID,26.155,VALID,37,VALID,1.46758,
2011-03-08, 02:56:05,VALID,1003.43,VALID,0,VALID,88.8688,VALID,0.100563,VALID,26.155,VALID,33,VALID,0.998438,
2011-03-08, 02:57:05,VALID,1003.44,VALID,0,VALID,88.8765,VALID,0,VALID,26.155,VALID,33,VALID,1.04336,
2011-03-08, 02:58:05,VALID,1003.41,VALID,0,VALID,89.3342,VALID,0,VALID,26.1355,VALID,26,VALID,1.37578,
2011-03-08, 02:59:05,VALID,1003.38,VALID,0,VALID,89.7614,VALID,0.100563,VALID,26.1355,VALID,27,VALID,1.19609,
2011-03-08, 03:00:05,VALID,1003.37,VALID,0,VALID,89.7919,VALID,0,VALID,26.1355,VALID,21,VALID,1.725,
2011-03-08, 03:01:05,VALID,1003.35,VALID,0,VALID,90.2191,VALID,0.100563,VALID,26.0966,VALID,34,VALID,1.39258,
2011-03-08, 03:02:05,VALID,1003.37,VALID,0,VALID,90.2649,VALID,0,VALID,26.0771,VALID,33,VALID,1.63477,
2011-03-08, 03:03:05,VALID,1003.37,VALID,0,VALID,90.4022,VALID,0,VALID,26.0381,VALID,43,VALID,1.30781,
2011-03-08, 03:04:05,VALID,1003.39,VALID,0,VALID,91.0888,VALID,0,VALID,25.9992,VALID,36,VALID,0.892969,
2011-03-08, 03:05:05,VALID,1003.4,VALID,0,VALID,91.0431,VALID,0.100563,VALID,25.9817,VALID,28,VALID,0.828516,
2011-03-08, 03:06:05,VALID,1003.44,VALID,0,VALID,91.1422,VALID,0,VALID,25.8998,VALID,70,VALID,0.705859,
2011-03-08, 03:07:05,VALID,1003.4,VALID,0,VALID,91.3406,VALID,0,VALID,25.9213,VALID,20,VALID,1.2543,
2011-03-08, 03:08:05,VALID,1003.42,VALID,0,VALID,91.6,VALID,0.100563,VALID,25.8609,VALID,48,VALID,0.727734,
2011-03-08, 03:09:05,VALID,1003.43,VALID,0,VALID,92.0348,VALID,0.100563,VALID,25.8629,VALID,30,VALID,1.1168,
2011-03-08, 03:10:05,VALID,1003.47,VALID,0,VALID,92.4086,VALID,0,VALID,25.8239,VALID,52,VALID,0.739844,
2011-03-08, 03:11:05,VALID,1003.45,VALID,0,VALID,92.6833,VALID,0,VALID,25.785,VALID,45,VALID,0.532422,
2011-03-08, 03:12:05,VALID,1003.44,VALID,0,VALID,93.0647,VALID,0.100563,VALID,25.7655,VALID,79,VALID,0.412109,
2011-03-08, 03:13:05,VALID,1003.45,VALID,0,VALID,93.3546,VALID,0.100563,VALID,25.7051,VALID,79,VALID,0.207813,
2011-03-08, 03:14:05,VALID,1003.46,VALID,0,VALID,93.7895,VALID,0.100563,VALID,25.6876,VALID,75,VALID,0.543359,
2011-03-08, 03:15:05,VALID,1003.47,VALID,0,VALID,94.2777,VALID,0.100563,VALID,25.6292,VALID,75,VALID,0.529297,
2011-03-08, 03:16:05,VALID,1003.51,VALID,0,VALID,95.2695,VALID,0.100563,VALID,25.5298,VALID,88,VALID,0.723437,
2011-03-08, 03:17:05,VALID,1003.49,VALID,0,VALID,95.8798,VALID,0.100563,VALID,25.4325,VALID,89,VALID,0.63125,
2011-03-08, 03:18:05,VALID,1003.51,VALID,0,VALID,96.7571,VALID,0.100563,VALID,25.3955,VALID,99,VALID,0.940234,
2011-03-08, 03:19:05,VALID,1003.52,VALID,0,VALID,98.0006,VALID,0.100563,VALID,25.337,VALID,107,VALID,0.828125,
2011-03-08, 03:20:05,VALID,1003.51,VALID,0,VALID,99.7934,VALID,0.100563,VALID,25.2572,VALID,106,VALID,0.717188,
2011-03-08, 03:21:05,VALID,1003.52,VALID,0,VALID,103.112,VALID,0.100563,VALID,25.2397,VALID,103,VALID,1.25469,
2011-03-08, 03:22:05,VALID,1003.51,VALID,0,VALID,104,VALID,0.100563,VALID,25.2202,VALID,91,VALID,0.996875,
2011-03-08, 03:23:05,VALID,1003.55,VALID,0,INVALID,109.902,VALID,0,VALID,25.2007,VALID,95,VALID,0.762891,
2011-03-08, 03:24:05,VALID,1003.54,VALID,0,INVALID,113.831,VALID,0.100563,VALID,25.1813,VALID,107,VALID,0.662109,
2011-03-08, 03:25:05,VALID,1003.55,VALID,0,INVALID,117.477,VALID,0.100563,VALID,25.1423,VALID,94,VALID,0.651563,
2011-03-08, 03:26:05,VALID,1003.57,VALID,0,INVALID,124.664,VALID,0,VALID,25.1229,VALID,93,VALID,0.454297,
2011-03-08, 03:27:05,VALID,1003.58,VALID,0,INVALID,136.13,VALID,0.100563,VALID,25.0839,VALID,93,VALID,0.636328,
2011-03-08, 03:28:05,VALID,1003.57,VALID,0,INVALID,160.672,VALID,0,VALID,25.0255,VALID,93,VALID,0.570703,
2011-03-08, 03:29:05,VALID,1003.55,VALID,0,INVALID,163.571,VALID,0,VALID,25.0274,VALID,95,VALID,0.7625,
2011-03-08, 03:30:05,VALID,1003.54,VALID,0,INVALID,163.647,VALID,0,VALID,24.9885,VALID,101,VALID,0.537109,
2011-03-08, 03:31:05,VALID,1003.56,VALID,0,INVALID,163.632,VALID,0,VALID,24.9885,VALID,101,VALID,0.416797,
2011-03-08, 03:32:05,VALID,1003.57,VALID,0,INVALID,163.639,VALID,0,VALID,24.9495,VALID,97,VALID,0.483203,
2011-03-08, 03:33:05,VALID,1003.56,VALID,0,INVALID,163.624,VALID,0,VALID,24.8892,VALID,94,VALID,0.556641,
2011-03-08, 03:34:05,VALID,1003.57,VALID,0,INVALID,163.655,VALID,0,VALID,24.8716,VALID,78,VALID,0.79375,
2011-03-08, 03:35:05,VALID,1003.58,VALID,0,INVALID,163.639,VALID,0,VALID,24.8327,VALID,81,VALID,0.765234,
2011-03-08, 03:36:05,VALID,1003.61,VALID,0,INVALID,163.662,VALID,0,VALID,24.7743,VALID,81,VALID,0.730078,
2011-03-08, 03:37:05,VALID,1003.62,VALID,0,INVALID,163.632,VALID,0,VALID,24.6964,VALID,79,VALID,0.742969,
2011-03-08, 03:38:05,VALID,1003.65,VALID,0,INVALID,163.67,VALID,0,VALID,24.6185,VALID,84,VALID,0.340234,
2011-03-08, 03:39:05,VALID,1003.65,VALID,0,INVALID,163.685,VALID,0,VALID,24.5193,VALID,84,VALID,0.428125,
2011-03-08, 03:40:05,VALID,1003.69,VALID,0,INVALID,163.678,VALID,0,VALID,24.4822,VALID,84,VALID,0.460156,
2011-03-08, 03:41:05,VALID,1003.71,VALID,0,INVALID,163.685,VALID,0,VALID,24.4433,VALID,92,VALID,0.398438,
2011-03-08, 03:42:05,VALID,1003.71,VALID,0,INVALID,163.685,VALID,0,VALID,24.3849,VALID,92,VALID,0.301172,